TimeEST,TemperatureF,Dew PointF,Humidity,Sea Level PressureIn,VisibilityMPH,Wind Direction,Wind SpeedMPH,Gust SpeedMPH,PrecipitationIn,Events,Conditions,WindDirDegrees,DateUTC
12:15 AM,28.4,24.8,86,30.15,10.0,WSW,5.8,-,N/A,,Overcast,240,2012-12-12 05:15:00
12:35 AM,28.4,24.8,86,30.15,10.0,WSW,8.1,-,N/A,,Overcast,250,2012-12-12 05:35:00
12:55 AM,28.4,23.0,80,30.15,10.0,WSW,10.4,-,N/A,,Overcast,250,2012-12-12 05:55:00
1:15 AM,28.4,21.2,74,30.16,10.0,WSW,15.0,19.6,N/A,,Overcast,240,2012-12-12 06:15:00
1:35 AM,28.4,21.2,74,30.17,10.0,West,15.0,-,N/A,,Overcast,260,2012-12-12 06:35:00
1:55 AM,28.4,17.6,64,30.18,10.0,West,11.5,23.0,N/A,,Overcast,260,2012-12-12 06:55:00
2:15 AM,28.4,19.4,69,30.18,10.0,WSW,9.2,-,N/A,,Overcast,250,2012-12-12 07:15:00
2:35 AM,26.6,17.6,69,30.19,10.0,WSW,11.5,-,N/A,,Mostly Cloudy,250,2012-12-12 07:35:00
2:55 AM,26.6,17.6,69,30.20,10.0,SW,11.5,-,N/A,,Partly Cloudy,230,2012-12-12 07:55:00
3:15 AM,26.6,17.6,69,30.20,10.0,SW,12.7,-,N/A,,Clear,230,2012-12-12 08:15:00
3:35 AM,26.6,17.6,69,30.20,10.0,WSW,9.2,17.3,N/A,,Clear,240,2012-12-12 08:35:00
3:55 AM,26.6,17.6,69,30.20,10.0,SW,10.4,-,N/A,,Clear,230,2012-12-12 08:55:00
4:15 AM,26.6,17.6,69,30.20,10.0,SW,6.9,16.1,N/A,,Clear,220,2012-12-12 09:15:00
4:35 AM,26.6,17.6,69,30.21,10.0,SW,6.9,-,N/A,,Partly Cloudy,220,2012-12-12 09:35:00
4:55 AM,26.6,17.6,69,30.21,10.0,SSW,9.2,-,N/A,,Clear,210,2012-12-12 09:55:00
5:15 AM,26.6,17.6,69,30.22,10.0,SW,5.8,-,N/A,,Partly Cloudy,220,2012-12-12 10:15:00
5:35 AM,24.8,19.4,80,30.23,10.0,SSW,6.9,-,N/A,,Partly Cloudy,210,2012-12-12 10:35:00
5:55 AM,24.8,19.4,80,30.24,10.0,SSW,6.9,-,N/A,,Clear,200,2012-12-12 10:55:00
6:15 AM,24.8,19.4,80,30.25,10.0,SW,5.8,-,N/A,,Partly Cloudy,220,2012-12-12 11:15:00
6:35 AM,24.8,19.4,80,30.26,10.0,SSW,5.8,-,N/A,,Scattered Clouds,210,2012-12-12 11:35:00
6:55 AM,24.8,19.4,80,30.26,10.0,South,5.8,-,N/A,,Scattered Clouds,190,2012-12-12 11:55:00
7:15 AM,24.8,19.4,80,30.27,10.0,South,8.1,-,N/A,,Mostly Cloudy,170,2012-12-12 12:15:00
7:35 AM,24.8,19.4,80,30.28,10.0,South,6.9,-,N/A,,Overcast,190,2012-12-12 12:35:00
8:15 AM,24.8,19.4,80,30.28,10.0,SSW,6.9,-,N/A,,Mostly Cloudy,200,2012-12-12 13:15:00
8:35 AM,26.6,19.4,74,30.29,10.0,SW,9.2,-,N/A,,Partly Cloudy,220,2012-12-12 13:35:00
8:55 AM,26.6,19.4,74,30.29,10.0,SSW,11.5,-,N/A,,Partly Cloudy,210,2012-12-12 13:55:00
9:15 AM,26.6,19.4,74,30.30,10.0,SW,10.4,-,N/A,,Clear,220,2012-12-12 14:15:00
9:35 AM,26.6,21.2,80,30.30,10.0,SW,10.4,-,N/A,,Clear,220,2012-12-12 14:35:00
9:55 AM,28.4,21.2,74,30.31,10.0,SW,12.7,-,N/A,,Clear,220,2012-12-12 14:55:00
10:15 AM,28.4,21.2,74,30.32,10.0,SSW,9.2,-,N/A,,Clear,210,2012-12-12 15:15:00
10:35 AM,28.4,21.2,74,30.32,10.0,SSW,8.1,-,N/A,,Clear,200,2012-12-12 15:35:00
10:55 AM,30.2,21.2,69,30.33,10.0,SSW,9.2,-,N/A,,Clear,210,2012-12-12 15:55:00
11:15 AM,32.0,21.2,64,30.32,10.0,SW,9.2,-,N/A,,Clear,230,2012-12-12 16:15:00
11:35 AM,32.0,21.2,64,30.32,10.0,SW,6.9,-,N/A,,Clear,230,2012-12-12 16:35:00
12:15 PM,32.0,21.2,64,30.33,10.0,SW,10.4,-,N/A,,Partly Cloudy,220,2012-12-12 17:15:00
12:35 PM,33.8,21.2,60,30.33,10.0,SW,10.4,-,N/A,,Partly Cloudy,230,2012-12-12 17:35:00
12:55 PM,33.8,23.0,65,30.32,10.0,SW,9.2,-,N/A,,Clear,230,2012-12-12 17:55:00
1:15 PM,33.8,21.2,60,30.32,10.0,WSW,10.4,-,N/A,,Clear,240,2012-12-12 18:15:00
1:35 PM,35.6,21.2,56,30.32,10.0,SSW,6.9,-,N/A,,Clear,210,2012-12-12 18:35:00
1:55 PM,35.6,19.4,52,30.33,10.0,WSW,6.9,-,N/A,,Clear,250,2012-12-12 18:55:00
2:15 PM,35.6,19.4,52,30.33,10.0,WSW,10.4,-,N/A,,Clear,240,2012-12-12 19:15:00
2:35 PM,35.6,19.4,52,30.33,10.0,WSW,9.2,-,N/A,,Clear,240,2012-12-12 19:35:00
2:55 PM,35.6,19.4,52,30.33,10.0,West,9.2,-,N/A,,Clear,270,2012-12-12 19:55:00
3:15 PM,35.6,19.4,52,30.33,10.0,West,8.1,-,N/A,,Clear,270,2012-12-12 20:15:00
3:35 PM,35.6,19.4,52,30.33,10.0,West,4.6,-,N/A,,Clear,270,2012-12-12 20:35:00
3:55 PM,35.6,19.4,52,30.33,10.0,West,5.8,-,N/A,,Clear,270,2012-12-12 20:55:00
4:15 PM,33.8,19.4,56,30.34,10.0,WSW,8.1,-,N/A,,Clear,250,2012-12-12 21:15:00
4:35 PM,33.8,19.4,56,30.34,10.0,SW,6.9,-,N/A,,Clear,230,2012-12-12 21:35:00
4:55 PM,33.8,19.4,56,30.35,10.0,WSW,5.8,-,N/A,,Clear,250,2012-12-12 21:55:00
5:15 PM,33.8,19.4,56,30.35,10.0,SW,3.5,-,N/A,,Clear,230,2012-12-12 22:15:00
5:35 PM,33.8,19.4,56,30.35,10.0,Calm,Calm,-,N/A,,Clear,0,2012-12-12 22:35:00
5:55 PM,32.0,19.4,60,30.35,10.0,Calm,Calm,-,N/A,,Clear,0,2012-12-12 22:55:00
6:15 PM,30.2,19.4,64,30.35,10.0,North,3.5,-,N/A,,Clear,350,2012-12-12 23:15:00
6:35 PM,32.0,21.2,64,30.35,10.0,Calm,Calm,-,N/A,,Clear,0,2012-12-12 23:35:00
7:15 PM,30.2,21.2,69,30.35,10.0,Calm,Calm,-,N/A,,Clear,0,2012-12-13 00:15:00
7:35 PM,30.2,21.2,69,30.36,10.0,Calm,Calm,-,N/A,,Clear,0,2012-12-13 00:35:00
7:55 PM,28.4,21.2,74,30.36,10.0,Calm,Calm,-,N/A,,Clear,0,2012-12-13 00:55:00
8:15 PM,28.4,23.0,80,30.37,10.0,Calm,Calm,-,N/A,,Clear,0,2012-12-13 01:15:00
8:35 PM,28.4,21.2,74,30.37,10.0,Calm,Calm,-,N/A,,Clear,0,2012-12-13 01:35:00
8:55 PM,28.4,21.2,74,30.37,10.0,Calm,Calm,-,N/A,,Clear,0,2012-12-13 01:55:00
9:15 PM,28.4,21.2,74,30.37,10.0,Calm,Calm,-,N/A,,Clear,0,2012-12-13 02:15:00
9:35 PM,26.6,19.4,74,30.37,10.0,South,3.5,-,N/A,,Clear,180,2012-12-13 02:35:00
9:55 PM,26.6,19.4,74,30.37,10.0,South,3.5,-,N/A,,Clear,180,2012-12-13 02:55:00
10:15 PM,26.6,19.4,74,30.38,10.0,South,4.6,-,N/A,,Clear,180,2012-12-13 03:15:00
10:35 PM,26.6,17.6,69,30.38,10.0,SSW,5.8,-,N/A,,Clear,200,2012-12-13 03:35:00
10:55 PM,28.4,19.4,69,30.38,10.0,SSW,5.8,-,N/A,,Clear,200,2012-12-13 03:55:00
11:15 PM,28.4,17.6,64,30.38,10.0,SSW,5.8,-,N/A,,Clear,210,2012-12-13 04:15:00
11:35 PM,26.6,17.6,69,30.38,10.0,SSW,6.9,-,N/A,,Clear,210,2012-12-13 04:35:00
11:55 PM,28.4,17.6,64,30.39,10.0,SSW,4.6,-,N/A,,Clear,200,2012-12-13 04:55:00